x

9432780 - Charleston, Or (chao3) Weather Station

11:36pm - Wed 16th Jan 2019 All times are PST. -8 hours from GMT.

  • Wind
    3mph, 6mph gusts
  • Sea Temp 51°f
  • Sea Pressure 995.9mb
  • 9432780 - Charleston, Or
  • 9432780 - Charleston, Or

More Historic Weather Station data

Upgrade to MSW Pro to gain access to the past 30 days of data for over 8000 Wavebouys and Weather Stations around the globe.

Join

Comparision Forecast

View Surf forecast
   
Wed 01/16 11:36pm 3 6 mph 995.9mb 51f
11:30pm 2 6 mph 996mb 51f
11:24pm 2 6 mph 996.2mb 51f
11:18pm 2 6 mph 996.3mb 51f
11:12pm 3 6 mph 996.3mb 51f
11:06pm 3 8 mph 996.2mb 51f
11:00pm 2 8 mph 996.1mb 51f
10:36pm 3 7 mph 996.2mb 51f
10:30pm 2 5 mph 996.1mb 51f
10:24pm 2 6 mph 996mb 52f
10:18pm 3 9 mph 996mb 52f
10:12pm 2 6 mph 996mb 52f
10:06pm 2 7 mph 995.8mb 52f
10:00pm 3 8 mph 995.8mb 52f
9:36pm 3 6 mph 995.8mb 52f
9:30pm 3 6 mph 995.9mb 52f
9:24pm 2 8 mph 996mb 52f
9:18pm 3 7 mph 996.1mb 52f
9:12pm 2 6 mph 996.2mb 52f
9:06pm 6 10 mph 996.2mb 52f
9:00pm 3 7 mph 996.3mb 52f
8:36pm 3 7 mph 996.2mb 52f
8:30pm 3 7 mph 996.3mb 52f
8:24pm 3 8 mph 996.4mb 52f
8:18pm 3 7 mph 996.3mb 52f
8:12pm 1 9 mph 996.2mb 52f
8:06pm 3 7 mph 996.1mb 52f
8:00pm 2 7 mph 996mb 52f
7:36pm 2 7 mph 995.7mb 51f
7:30pm 3 7 mph 995.8mb 51f
7:24pm 2 8 mph 995.9mb 51f
7:18pm 3 7 mph 996mb 51f
7:12pm 3 10 mph - -
7:06pm 3 9 mph 995.7mb 51f
7:00pm 3 8 mph 995.8mb 51f
6:36pm 5 16 mph 995.6mb 51f
6:30pm 6 14 mph 996mb 51f
6:24pm 3 9 mph 996.8mb 51f
6:18pm 3 7 mph 996.4mb 50f
6:12pm 2 6 mph 996.4mb 50f
6:06pm 2 6 mph 996.4mb 50f
6:00pm 2 7 mph 996.3mb 50f
5:36pm 3 7 mph 996.7mb 50f
5:30pm 2 7 mph 996.4mb 50f
5:24pm 3 9 mph 996.2mb 50f
5:18pm 3 6 mph 996.3mb 50f
5:12pm 2 7 mph 996.3mb 50f
5:06pm 2 8 mph 996.2mb 50f
5:00pm 3 9 mph 996.1mb 50f
4:36pm 5 11 mph 995.8mb 50f
4:30pm 6 13 mph 995.9mb 50f
4:24pm 5 14 mph 996mb 50f
4:18pm 5 13 mph 996mb 50f
4:12pm 3 11 mph 996mb 50f
4:06pm 6 11 mph 996.1mb 50f
4:00pm 6 13 mph 996.3mb 50f
3:36pm 7 13 mph 996.8mb 50f
3:30pm 7 10 mph 997mb 50f
3:24pm 5 9 mph 997.1mb 50f
3:18pm 6 13 mph 997.2mb 50f
3:12pm 6 13 mph - -
3:06pm 6 14 mph 997.4mb 51f
3:00pm 6 10 mph 997.4mb 51f
2:36pm 3 14 mph 998.1mb 51f
2:30pm 6 14 mph 998.2mb 51f
2:24pm 7 13 mph 998.2mb 51f
2:18pm 5 13 mph 998.2mb 51f
2:12pm 6 13 mph 998.3mb 51f
2:06pm 3 10 mph 998.5mb 51f
2:00pm 6 14 mph 998.6mb 51f
1:36pm 6 9 mph 999.4mb 51f
1:30pm 6 9 mph 999.4mb 51f
1:24pm 5 9 mph 999.4mb 51f
1:18pm 6 11 mph 999.5mb 51f
1:12pm 7 9 mph 999.6mb 51f
1:06pm 6 14 mph 999.7mb 51f
1:00pm 5 8 mph 1000mb 51f
12:36pm 3 9 mph 1000.9mb 51f
12:30pm 5 14 mph 1001.1mb 51f
12:24pm 5 11 mph 1001.4mb 51f
12:18pm 5 10 mph 1001.7mb 51f
12:12pm 6 10 mph 1002mb 51f
12:06pm 3 8 mph 1002.2mb 51f
12:00pm 3 8 mph 1002.4mb 51f
11:36am 2 10 mph 1003.1mb 51f
11:30am 2 5 mph 1003.3mb 51f
11:24am 2 8 mph 1003.5mb 51f
11:18am 3 7 mph 1003.8mb 51f
11:12am 2 7 mph 1004mb 51f
11:06am 2 6 mph 1004mb 51f
11:00am 2 3 mph 1004.1mb 51f
10:36am 2 6 mph 1004.5mb 51f
10:30am 3 8 mph 1004.5mb 51f
10:24am 5 7 mph 1004.6mb 51f
10:18am 2 8 mph 1004.7mb 51f
10:12am 7 10 mph 1004.7mb 51f
10:06am 6 8 mph 1004.9mb 51f
10:00am 6 9 mph 1005mb 51f
9:36am 6 8 mph 1005mb 51f
9:30am 6 10 mph 1005.1mb 51f
9:24am 5 8 mph 1005.3mb 51f
9:18am 3 7 mph 1005.4mb 51f
9:12am 3 8 mph 1005.4mb 51f
9:06am 5 8 mph 1005.5mb 51f
9:00am 5 8 mph 1005.5mb 51f
8:36am 3 7 mph 1005.4mb 51f
8:30am 3 10 mph 1005.3mb 51f
8:24am 3 6 mph 1005.4mb 51f
8:18am 3 9 mph 1005.3mb 52f
8:12am 3 7 mph 1005.3mb 52f
8:06am 2 9 mph 1005.3mb 52f
8:00am 2 7 mph 1005.3mb 52f
7:36am 2 5 mph 1004.9mb 52f
7:30am 2 5 mph 1005mb 52f
7:24am 3 6 mph 1005mb 52f
7:18am 3 8 mph 1005mb 52f
7:12am 6 9 mph 1005mb 52f
7:06am 5 8 mph 1005.2mb 52f
7:00am 3 7 mph 1005mb 52f
6:36am 5 9 mph 1005.3mb 52f
6:30am 2 6 mph 1005.5mb 52f
6:24am 3 7 mph 1005.5mb 52f
6:18am 2 5 mph 1005.3mb 52f
6:12am 3 6 mph 1005.3mb 52f
6:06am 2 6 mph 1005.3mb 52f
6:00am 3 7 mph 1005.2mb 52f
5:36am 2 5 mph 1005.4mb 52f
5:30am 2 6 mph 1005.4mb 52f
5:24am 1 3 mph 1005.3mb 51f
5:18am 2 5 mph 1005.3mb 51f
5:12am 3 6 mph 1005.2mb 51f
5:06am 2 6 mph 1005.2mb 51f
5:00am 2 6 mph 1005.2mb 51f
4:36am 2 7 mph 1005.5mb 51f
4:30am 2 6 mph 1005.1mb 51f
4:24am 2 10 mph 1005mb 51f
4:18am 5 7 mph 1004.9mb 50f
4:12am 3 6 mph 1004.9mb 50f
4:06am 2 6 mph 1004.8mb 50f
4:00am 3 6 mph 1004.9mb 50f
3:36am 5 7 mph 1005.1mb 50f
3:30am 3 6 mph 1005.2mb 50f
3:24am 5 7 mph 1005.3mb 50f
3:18am 5 7 mph 1005.4mb 50f
3:12am 5 7 mph 1005.3mb 50f
3:06am 6 8 mph 1005.4mb 50f
3:00am 5 7 mph 1005.4mb 50f
2:36am 5 7 mph 1005.3mb 50f
2:30am 3 6 mph 1005.2mb 50f
2:24am 3 5 mph 1005.1mb 50f
2:18am 3 7 mph 1005.1mb 50f
2:12am 3 6 mph 1004.9mb 50f
2:06am 5 6 mph 1005mb 50f
2:00am 2 5 mph 1005mb 50f
1:36am 3 6 mph 1005.1mb 50f
1:30am 3 6 mph 1005mb 50f
1:24am 3 6 mph 1004.8mb 50f
1:18am 3 6 mph 1004.7mb 50f
1:12am 3 6 mph 1004.8mb 50f
1:06am 3 5 mph 1004.7mb 50f
1:00am 3 7 mph 1004.8mb 50f
12:36am 3 6 mph - -
12:30am 5 6 mph 1004.8mb 50f
12:24am 3 6 mph 1004.9mb 50f
12:18am 2 5 mph 1005mb 51f
12:12am 3 6 mph 1005.1mb 51f
12:06am 3 6 mph 1005.1mb 51f
12:00am 5 7 mph 1005.1mb 51f
Tue 01/15 11:36pm 5 8 mph 1005.2mb 51f
11:30pm 3 8 mph 1005.3mb 51f
11:24pm 5 7 mph 1005.3mb 51f
11:18pm 5 7 mph 1005.2mb 51f
11:12pm 5 8 mph 1005.1mb 51f
11:06pm 7 9 mph 1005.1mb 51f
11:00pm 6 8 mph 1005mb 51f
10:36pm 6 8 mph 1004.8mb 51f
10:30pm 6 7 mph 1004.9mb 51f
10:24pm 5 7 mph 1004.8mb 51f
10:18pm 6 9 mph 1004.8mb 51f
10:12pm 6 8 mph 1004.8mb 51f
10:06pm 5 8 mph 1004.9mb 51f
10:00pm 5 6 mph 1005mb 51f
9:36pm 5 7 mph 1004.7mb 51f
9:30pm 3 6 mph 1004.7mb 51f
9:24pm 3 6 mph 1004.7mb 51f
9:18pm 5 7 mph 1004.6mb 51f
9:12pm 3 6 mph 1004.7mb 52f
9:06pm 3 6 mph 1004.7mb 52f
9:00pm 3 7 mph 1004.7mb 52f
8:36pm 2 5 mph 1004.7mb 52f
8:30pm 3 6 mph 1004.8mb 52f
8:24pm 3 6 mph 1004.9mb 52f
8:18pm 3 5 mph 1004.9mb 52f
8:12pm 5 5 mph 1004.9mb 52f
8:06pm  -  3 mph 1004.8mb 52f
8:00pm 2 6 mph 1004.8mb 52f
7:36pm 2 6 mph 1004.9mb 52f
7:30pm 3 6 mph 1004.9mb 52f
7:24pm 3 7 mph 1005mb 52f
7:18pm 5 7 mph 1005mb 52f
7:12pm 3 7 mph 1004.9mb 52f
7:06pm 3 5 mph 1004.9mb 52f
7:00pm 3 6 mph 1004.8mb 52f
6:36pm 5 8 mph 1004.9mb 51f
6:30pm 6 7 mph 1004.9mb 51f
6:24pm 3 6 mph 1004.9mb 51f
6:18pm 3 6 mph 1004.9mb 51f
6:12pm 5 6 mph 1004.9mb 51f
6:06pm 5 6 mph 1004.9mb 51f
6:00pm 3 5 mph 1004.9mb 51f
5:36pm 5 6 mph 1005mb 50f
5:30pm 3 6 mph 1005.1mb 50f
5:24pm 5 6 mph 1005.1mb 50f
5:18pm 5 6 mph 1005.2mb 50f
5:12pm 5 6 mph 1005mb 50f
5:06pm 5 6 mph 1005.1mb 50f
5:00pm 3 5 mph 1005.2mb 50f
4:36pm 3 5 mph 1005.4mb 49f
4:30pm 3 5 mph 1005.5mb 49f
4:24pm 3 5 mph 1005.5mb 49f
4:18pm 5 6 mph 1005.5mb 49f
4:12pm 3 5 mph 1005.7mb 49f
4:06pm 3 7 mph 1005.7mb 49f
4:00pm 5 7 mph 1005.7mb 49f
3:36pm 5 7 mph 1005.9mb 49f
3:30pm 6 7 mph 1006mb 49f
3:24pm 5 7 mph 1006mb 49f
3:18pm 6 8 mph 1006.1mb 49f
3:12pm 6 10 mph 1006.1mb 49f
3:06pm 8 10 mph 1006.1mb 49f
3:00pm 6 8 mph 1006.1mb 49f
2:36pm 3 6 mph 1006.3mb 49f
2:30pm 3 6 mph 1006.3mb 49f
2:24pm 3 7 mph 1006.3mb 49f
2:18pm 2 6 mph 1006.4mb 49f
2:12pm 3 5 mph 1006.4mb 50f
2:06pm 3 5 mph 1006.5mb 50f
2:00pm 2 5 mph 1006.5mb 50f
1:36pm  -  3 mph 1006.8mb 50f
1:30pm 1 2 mph 1006.9mb 50f
1:24pm 2 7 mph 1006.9mb 50f
1:18pm  -  3 mph 1007mb 50f
1:12pm 2 5 mph 1007mb 50f
1:06pm 1 3 mph 1007.1mb 50f
1:00pm  -  3 mph 1007.2mb 50f
12:36pm  -  2 mph 1007.4mb 50f
12:30pm 1 2 mph 1007.5mb 50f
12:24pm 1 2 mph 1007.6mb 50f
12:18pm  -  0 mph 1007.6mb 50f
12:12pm  -  2 mph 1007.7mb 50f
12:06pm 1 2 mph 1007.8mb 50f
12:00pm 2 3 mph 1007.9mb 50f
11:36am 3 6 mph 1008.1mb 50f
11:30am 2 7 mph 1008mb 50f
11:24am 5 7 mph 1008.2mb 50f
11:18am 5 9 mph 1008.1mb 50f
11:12am 6 7 mph 1008.1mb 50f
11:06am 6 7 mph 1008.3mb 50f
11:00am 3 6 mph 1008.5mb 50f
10:36am 3 7 mph 1008.9mb 50f
10:30am 2 6 mph 1009mb 51f
10:24am 2 7 mph 1009.1mb 51f
10:18am 3 7 mph 1009mb 51f
10:12am 2 6 mph 1009mb 51f
10:06am 2 9 mph 1008.9mb 51f
10:00am 3 8 mph 1008.9mb 51f
9:36am 6 8 mph 1008.4mb 51f
9:30am 6 9 mph 1008.4mb 51f
9:24am 7 11 mph 1008.3mb 51f
9:18am 8 11 mph 1008.3mb 51f
9:12am 6 10 mph 1008.3mb 51f
9:06am 10 13 mph 1008.2mb 51f
9:00am 6 11 mph 1008.2mb 51f
8:36am 5 8 mph 1008.2mb 51f
8:30am 6 8 mph 1008.1mb 51f
8:24am 5 6 mph 1008.2mb 51f
8:18am 5 8 mph 1008.2mb 51f
8:12am 6 8 mph 1008.2mb 51f
8:06am 6 9 mph 1008.3mb 51f
8:00am 6 9 mph 1008.3mb 51f
7:36am 6 7 mph 1008.4mb 51f
7:30am 5 8 mph 1008.4mb 51f
7:24am 6 9 mph 1008.5mb 51f
7:18am 7 8 mph 1008.6mb 52f
7:12am 5 6 mph 1008.7mb 52f
7:06am 1 3 mph 1008.7mb 51f
7:00am  -  3 mph 1008.7mb 52f
6:36am 3 5 mph 1009.1mb 52f
6:30am 2 5 mph 1009mb 52f
6:24am 2 7 mph 1008.8mb 52f
6:18am 6 8 mph 1008.8mb 52f
6:12am 7 9 mph 1008.7mb 52f
6:06am 6 10 mph 1008.7mb -
6:00am 3 6 mph 1008.7mb 52f
5:36am 3 6 mph 1008.9mb 52f
5:30am 5 6 mph 1008.9mb 52f
5:24am 5 7 mph 1008.9mb 52f
5:18am 5 7 mph 1008.9mb 52f
5:12am 5 6 mph 1009mb 51f
5:06am 3 6 mph 1008.9mb 51f
5:00am 3 6 mph 1009mb 51f
4:36am 3 8 mph 1009.2mb 51f
4:30am 5 8 mph 1009.3mb 51f
4:24am 5 9 mph 1009.4mb 51f
4:18am 5 7 mph 1009.4mb 51f
4:12am 5 7 mph 1009.3mb 51f
4:06am 5 8 mph 1009.4mb 51f
4:00am 5 8 mph 1009.5mb 51f
3:36am 6 9 mph 1009.5mb 51f
3:30am 5 9 mph 1009.5mb 51f
3:24am 6 9 mph 1009.6mb 50f
3:18am 6 10 mph 1009.6mb 50f
3:12am 5 11 mph 1009.6mb 50f
3:06am 5 7 mph 1009.7mb 50f
3:00am 5 7 mph 1009.6mb 50f
2:36am 5 8 mph 1009.7mb 49f
2:30am 5 10 mph 1009.7mb 49f
2:24am 6 9 mph 1009.6mb 49f
2:18am 5 10 mph 1009.5mb 49f
2:12am 5 9 mph 1009.6mb 49f
2:06am 5 9 mph 1009.5mb 49f
2:00am 5 7 mph 1009.5mb 49f
1:36am 3 8 mph 1009.4mb 49f
1:30am 6 9 mph 1009.4mb 49f
1:24am 6 9 mph 1009.4mb 50f
1:18am 3 7 mph 1009.3mb 50f
1:12am 5 7 mph 1009.3mb 50f
1:06am 3 7 mph 1009.3mb 49f
1:00am 5 8 mph 1009.3mb 49f
12:36am 5 7 mph 1009.3mb 49f
12:30am 5 7 mph 1009.4mb 49f
12:24am 5 7 mph 1009.5mb 49f
12:18am 5 7 mph 1009.5mb 50f
12:12am 6 7 mph 1009.6mb 50f
12:06am 5 8 mph 1009.6mb 50f
12:00am 6 8 mph 1009.6mb 50f
Mon 01/14 11:36pm 6 9 mph 1009.8mb 50f
11:30pm 6 10 mph 1009.8mb 50f
11:24pm 6 8 mph 1009.8mb 50f
11:18pm 5 8 mph 1009.8mb 50f
11:12pm 6 8 mph 1009.8mb 50f
11:06pm 6 9 mph 1009.8mb 50f
11:00pm 7 9 mph 1009.8mb 50f
10:36pm 5 7 mph 1009.8mb 50f
10:30pm 5 6 mph 1009.8mb 50f
10:24pm 3 6 mph 1009.7mb 50f
10:18pm 3 8 mph 1009.8mb 50f
10:12pm 5 8 mph 1009.8mb 50f
10:06pm 5 7 mph 1009.9mb 51f
10:00pm 3 7 mph 1009.8mb 51f
9:36pm 6 8 mph 1009.9mb 51f
9:30pm 5 7 mph 1010mb 51f
9:24pm 5 9 mph 1009.9mb 51f
9:18pm 5 8 mph 1009.9mb 51f
9:12pm 5 7 mph 1009.9mb 51f
9:06pm 5 7 mph 1009.9mb 51f
9:00pm 5 7 mph 1009.9mb 51f
8:36pm 3 7 mph 1009.9mb 51f
8:30pm 5 6 mph 1009.9mb 51f
8:24pm 3 6 mph 1009.9mb 51f
8:18pm 5 7 mph 1009.9mb 51f
8:12pm 5 6 mph 1010mb 51f
8:06pm 5 6 mph 1010mb 51f
8:00pm 3 6 mph 1010mb 51f
7:36pm 3 6 mph 1009.9mb 51f
7:30pm 3 5 mph 1009.9mb 51f
7:24pm 3 6 mph 1010mb 51f
7:18pm 3 6 mph 1010mb 51f
7:12pm 3 6 mph 1010mb 51f
7:06pm 3 6 mph 1010.1mb 52f
7:00pm 3 6 mph 1010.1mb 51f
6:36pm 2 3 mph 1010.1mb 52f
6:30pm 2 3 mph 1010.1mb 52f
6:24pm 1 3 mph 1010mb 52f
6:18pm 1 3 mph 1010mb 52f
6:12pm 1 3 mph 1010mb 52f
6:06pm 2 5 mph 1010mb 52f
6:00pm 1 3 mph 1010mb 52f
5:36pm 2 6 mph 1009.9mb 51f
5:30pm 3 6 mph 1009.8mb 51f
5:24pm 3 6 mph 1009.8mb 51f
5:18pm 3 6 mph 1009.8mb 51f
5:12pm 3 6 mph 1009.8mb 51f
5:06pm 3 6 mph 1009.8mb 51f
5:00pm 3 6 mph 1009.8mb 51f
4:36pm 2 3 mph 1010mb 51f
4:30pm 2 5 mph 1010.1mb 51f
4:24pm 2 5 mph 1010mb 51f
4:18pm 2 6 mph 1010.1mb 51f
4:12pm 2 5 mph 1010.1mb 51f
4:06pm 2 5 mph 1010mb 50f
4:00pm 2 6 mph 1010.1mb 50f
3:36pm 3 6 mph 1010.2mb 50f
3:30pm 3 7 mph 1010.2mb 50f
3:24pm 5 7 mph 1010.2mb 50f
3:18pm 3 6 mph 1010.3mb 50f
3:12pm 3 7 mph 1010.3mb 50f
3:06pm 1 3 mph 1010.3mb 50f
3:00pm 1 3 mph - -
2:36pm 2 9 mph 1010.3mb 50f
2:30pm 3 5 mph 1010.3mb 50f
2:24pm 3 7 mph 1010.3mb 50f
2:18pm 5 8 mph 1010.4mb 50f
2:12pm 2 8 mph 1010.4mb 50f
2:06pm 2 6 mph 1010.4mb 50f
2:00pm 3 7 mph 1010.5mb 50f
1:36pm 2 5 mph 1010.7mb 50f
1:30pm 1 6 mph 1010.7mb 50f
1:24pm 1 6 mph 1010.6mb 50f
1:18pm 2 8 mph 1010.6mb 50f
1:12pm 3 8 mph 1010.6mb 50f
1:06pm 5 9 mph 1010.7mb 50f
1:00pm 5 9 mph 1010.8mb 50f
12:36pm 6 10 mph 1011.1mb 50f
12:30pm 5 9 mph 1011.3mb 50f
12:24pm 5 8 mph 1011.4mb 50f
12:18pm 5 9 mph 1011.5mb 50f
12:12pm 6 9 mph 1011.6mb 50f
12:06pm 6 9 mph 1011.7mb 50f
12:00pm 5 9 mph 1011.9mb 50f
11:36am 5 9 mph 1012.5mb 50f
11:30am 5 9 mph 1012.6mb 50f
11:24am 6 8 mph 1012.6mb 50f
11:18am 6 8 mph 1012.7mb 50f
11:12am 5 8 mph 1012.9mb 50f
11:06am 5 8 mph 1013mb 50f
11:00am 5 9 mph 1013.1mb 50f
10:36am 3 6 mph 1013.4mb 50f
10:30am 3 6 mph 1013.5mb 50f
10:24am 3 6 mph 1013.6mb 50f
10:18am 5 7 mph 1013.8mb 50f
10:12am 5 7 mph 1013.8mb 51f
10:06am 5 6 mph 1013.9mb 50f
10:00am 3 5 mph 1013.9mb 51f
9:36am 3 6 mph 1014mb 51f
9:30am 3 6 mph 1014mb 51f
9:24am 5 7 mph 1014mb 51f
9:18am 6 9 mph 1014mb 51f
9:12am 7 11 mph 1014mb 51f
9:06am 7 11 mph 1014.1mb 51f
9:00am 7 11 mph 1014.1mb 51f
8:36am 3 7 mph 1013.9mb 51f
8:30am 2 7 mph 1014mb 51f
8:24am 3 7 mph 1013.9mb 51f
8:18am 3 7 mph 1013.9mb 51f
8:12am 3 8 mph 1013.9mb 51f
8:06am 5 7 mph 1014mb 51f
8:00am 5 7 mph 1014mb 51f
7:36am 5 7 mph 1014.2mb 51f
7:30am 3 6 mph 1014.3mb 51f
7:24am 5 6 mph 1014.3mb 51f
7:18am 5 7 mph 1014.3mb 51f
7:12am 3 6 mph 1014.4mb 51f
7:06am 6 8 mph 1014.4mb 51f
7:00am 6 8 mph 1014.4mb 51f
6:36am 3 5 mph 1014.3mb 52f
6:30am 2 5 mph 1014.3mb 52f
6:24am 2 3 mph 1014.3mb 52f
6:18am 2 3 mph 1014.3mb 52f
6:12am 2 5 mph 1014.3mb 52f
6:06am 3 6 mph 1014.3mb 52f
6:00am 3 7 mph 1014.4mb 52f
5:36am 5 6 mph 1014.3mb 52f
5:30am 3 6 mph 1014.3mb 52f
5:24am 2 7 mph 1014.3mb 52f
5:18am 5 8 mph 1014.3mb 52f
5:12am 6 7 mph 1014.4mb 52f
5:06am 5 7 mph 1014.5mb 52f
5:00am 2 6 mph 1014.7mb 52f
4:36am 6 7 mph 1014.8mb 52f
4:30am 6 8 mph 1014.8mb 52f
4:24am 5 7 mph - -
4:18am 6 7 mph 1015mb 52f
4:12am 6 8 mph 1015.1mb 52f
4:06am 6 8 mph 1015.1mb 52f
4:00am 6 7 mph 1015.2mb 52f
3:36am 5 7 mph 1015.4mb 52f
3:30am 5 7 mph 1015.4mb 52f
3:24am 2 3 mph 1015.4mb 52f
3:18am 2 6 mph 1015.4mb 51f
3:12am 3 6 mph 1015.4mb 51f
3:06am 3 6 mph 1015.4mb 51f
3:00am 3 6 mph 1015.4mb 51f
2:36am  -  2 mph 1015.4mb 51f
2:30am 1 3 mph 1015.4mb 51f
2:24am 1 3 mph 1015.5mb 51f
2:18am 1 2 mph 1015.4mb 50f
2:12am  -  1 mph 1015.4mb 50f
2:06am  -  2 mph 1015.4mb 50f
2:00am  -  3 mph 1015.4mb 50f
1:36am 1 7 mph 1015.3mb 50f
1:30am 5 11 mph 1015.4mb 50f
1:24am 6 10 mph 1015.4mb 50f
1:18am 6 10 mph 1015.4mb 50f
1:12am 8 13 mph 1015.4mb 50f
1:06am 6 9 mph 1015.4mb 50f
1:00am 6 9 mph 1015.5mb 50f
12:36am 5 8 mph 1015.6mb 50f
12:30am 6 10 mph 1015.6mb 50f
12:24am 6 8 mph 1015.6mb 50f
12:18am 6 9 mph 1015.7mb 50f
12:12am 5 8 mph 1015.7mb 50f
12:06am 6 10 mph 1015.8mb 50f
12:00am 7 10 mph 1015.8mb 50f
Sun 01/13 11:36pm 8 11 mph 1016.1mb 50f
11:30pm 8 11 mph 1016.1mb 50f
11:24pm 8 10 mph 1016.2mb 50f
11:18pm 7 10 mph 1016.2mb 50f
11:12pm 6 9 mph 1016.2mb 51f
11:06pm 5 9 mph 1016.3mb 51f
11:00pm 5 9 mph 1016.3mb 51f
10:36pm 7 9 mph 1016.3mb 51f
10:30pm 8 10 mph 1016.3mb 51f
10:24pm 9 13 mph 1016.3mb 51f
10:18pm 9 14 mph 1016.3mb 51f
10:12pm 7 9 mph 1016.2mb 51f
10:06pm 6 10 mph 1016.2mb 51f
10:00pm 8 9 mph 1016.2mb 51f
9:36pm 8 10 mph 1016.1mb 51f
9:30pm 8 9 mph 1016mb 51f
9:24pm 8 9 mph 1016mb 51f
9:18pm 8 9 mph 1015.9mb 51f
9:12pm 7 9 mph 1015.9mb 51f
9:06pm 7 9 mph 1015.9mb 51f
9:00pm 6 10 mph 1015.8mb 51f
8:36pm 6 8 mph 1015.8mb 51f
8:30pm 6 8 mph 1015.8mb 51f
8:24pm 6 10 mph 1015.8mb 51f
8:18pm 7 9 mph 1015.8mb 51f
8:12pm 7 10 mph 1015.8mb 51f
8:06pm 7 8 mph 1015.7mb 51f
8:00pm 7 9 mph 1015.8mb 51f
7:36pm 6 8 mph 1015.8mb 51f
7:30pm 6 7 mph 1015.8mb 51f
7:24pm 6 7 mph 1015.7mb 51f
7:18pm 6 7 mph 1015.7mb 51f
7:12pm 6 6 mph 1015.8mb 51f
7:06pm 5 6 mph 1015.8mb 51f
7:00pm 5 6 mph 1015.8mb 51f
6:36pm 6 7 mph 1015.9mb 51f
6:30pm 5 7 mph 1015.8mb 51f
6:24pm 6 7 mph 1015.8mb 52f
6:18pm 3 5 mph 1015.8mb 52f
6:12pm 2 5 mph 1015.7mb 52f
6:06pm 2 3 mph 1015.7mb 52f
6:00pm 2 2 mph 1015.7mb 52f
5:36pm 1 2 mph 1015.8mb 52f
5:30pm 2 3 mph 1015.8mb 52f
5:24pm 1 2 mph 1015.8mb 52f
5:18pm 1 2 mph 1015.8mb 52f
5:12pm 1 2 mph 1015.9mb 52f
5:06pm  -  1 mph 1015.9mb 52f
5:00pm  -  0 mph 1015.8mb 52f
4:36pm  -  0 mph 1015.9mb 52f
4:30pm  -  1 mph 1016mb 52f
4:24pm  -  1 mph 1016mb 52f
4:18pm  -  2 mph 1016mb 52f
4:12pm 2 3 mph 1016mb 52f
4:06pm 1 3 mph 1016.1mb 52f
4:00pm 3 3 mph 1016.1mb 52f
3:36pm 3 5 mph 1016.2mb 51f
3:30pm 3 5 mph 1016.2mb 51f
3:24pm 3 5 mph 1016.2mb 51f
3:18pm 3 5 mph 1016.2mb 51f
3:12pm 3 5 mph 1016.2mb 51f
3:06pm 3 5 mph 1016.3mb 51f
3:00pm 3 5 mph 1016.3mb 51f
2:36pm 2 2 mph 1016.3mb 51f
2:30pm 3 3 mph 1016.3mb 51f
2:24pm 3 3 mph 1016.3mb 51f
2:18pm 3 3 mph 1016.3mb 51f
2:12pm 3 5 mph 1016.4mb 51f
2:06pm 2 3 mph 1016.4mb 51f
2:00pm 2 3 mph 1016.4mb 51f
1:36pm 2 5 mph 1016.4mb 50f
1:30pm 3 5 mph 1016.4mb 50f
1:24pm 1 5 mph 1016.4mb 50f
1:18pm 3 5 mph 1016.4mb 50f
1:12pm 1 6 mph 1016.4mb 50f
1:06pm 3 6 mph 1016.4mb 50f
1:00pm 2 5 mph 1016.5mb 50f
12:36pm 3 3 mph 1016.8mb 50f
12:30pm 3 5 mph 1016.8mb 50f
12:24pm 2 3 mph 1016.9mb 50f
12:18pm 2 5 mph 1016.9mb 50f
12:12pm 5 6 mph 1017mb 50f
12:06pm 3 6 mph 1017.1mb 50f
12:00pm 5 6 mph 1017.2mb 50f
11:36am 3 6 mph 1017.5mb 50f
11:30am 5 6 mph 1017.6mb 51f
11:24am 5 7 mph 1017.7mb 51f
11:18am 3 7 mph 1017.8mb 51f
11:12am 5 7 mph 1017.9mb 51f
11:06am 5 7 mph 1018mb 51f
11:00am 5 6 mph 1018.1mb 51f
10:36am 5 7 mph 1018.4mb 51f
10:30am 6 9 mph 1018.4mb 51f
10:24am 7 9 mph 1018.5mb 51f
10:18am 7 9 mph 1018.5mb 51f
10:12am 6 8 mph 1018.4mb 51f
10:06am 6 10 mph 1018.5mb 51f
10:00am 6 8 mph 1018.4mb 51f
9:36am 5 7 mph 1018.4mb 51f
9:30am 5 8 mph 1018.3mb 51f
9:24am 5 7 mph 1018.3mb 51f
9:18am 5 7 mph 1018.2mb 51f
9:12am 6 11 mph 1018.2mb 51f
9:06am 6 9 mph 1018.2mb 51f
9:00am 5 7 mph 1018.1mb 51f